Weather History for Kalamazoo, MI

Change the Weather History Date:

Sunday, February 24, 2013

  Actual Average Record
Temperature  
Mean Temperature 26 °F 29 °F  
Max Temperature 35 °F 37 °F 64 °F (1984)
Min Temperature 17 °F 22 °F 2 °F (1967)
Degree Days  
Heating Degree Days 39 36  
Month to date heating degree days 968 925  
Since 1 July heating degree days 4419 4633  
Cooling Degree Days 0 0  
Month to date cooling degree days 0 0  
Year to date cooling degree days 0 0  
Moisture  
Dew Point 21 °F    
Average Humidity 78    
Maximum Humidity 92    
Minimum Humidity 64    
Precipitation  
Precipitation T in 0.06 in 1.44 in (2001)
Month to date precipitation 0.76 1.21  
Year to date precipitation 4.16 3.00  
Sea Level Pressure  
Sea Level Pressure 30.06 in    
Wind  
Wind Speed 6 mph (WSW)    
Max Wind Speed 14 mph    
Max Gust Speed 17 mph    
Visibility 6 miles    
Events Fog , Snow    
T = Trace of Precipitation, MM = Missing Value Source: NWS Daily Summary

Daily Weather History Graph

Daily Weather History Graph

Search for Another Location

Airport:

Trip Planner

Search our weather history database for the weather conditions in past years. The results will help you decide how hot, cold, wet, or windy it might be!

Date:

Astronomy

Feb. 24, 2013 Rise Set
Actual Time 7:24 AM EST 6:26 PM EST
Civil Twilight 6:56 AM EST 6:54 PM EST
Nautical Twilight 6:24 AM EST 7:27 PM EST
Astronomical Twilight 5:51 AM EST 7:59 PM EST
Moon 5:36 PM EST 6:22 AM EST
Length of Visible Light 11h 58m
Length of Day
11h 01m
Waxing Gibbous, 99% of the Moon is Illuminated
Feb 24
Waxing Gibbous
Feb 25
Full
Mar 4
Last Quarter
Mar 11
New
Mar 19
First Quarter

Hourly Weather History & Observations

Time (EST) Temp. Windchill Dew Point Humidity Pressure Visibility Wind Dir Wind Speed Gust Speed Precip Events Conditions
12:53 AM 26.1 °F 16.8 °F 19.0 °F 75% 29.94 in 8.0 mi SW 9.2 mph - N/A   Overcast
1:42 AM 26.6 °F 19.1 °F 19.4 °F 74% 29.92 in 9.0 mi SW 6.9 mph - N/A   Overcast
1:53 AM 25.0 °F 19.3 °F 19.0 °F 78% 29.96 in 8.0 mi SW 4.6 mph - N/A   Overcast
2:53 AM 25.0 °F 18.1 °F 19.9 °F 81% 29.97 in 5.0 mi SW 5.8 mph - 0.00 in Snow Light Snow
3:48 AM 24.8 °F 16.9 °F 19.4 °F 80% 29.92 in 2.0 mi SW 6.9 mph - 0.00 in Snow Light Snow
3:53 AM 25.0 °F 18.1 °F 19.9 °F 81% 29.96 in 2.5 mi SW 5.8 mph - 0.00 in Snow Light Snow
4:02 AM 24.8 °F 16.9 °F 21.2 °F 86% 29.93 in 4.0 mi SSW 6.9 mph - 0.00 in Snow Light Snow
4:22 AM 24.8 °F 19.1 °F 21.2 °F 86% 29.93 in 7.0 mi SW 4.6 mph - 0.00 in   Overcast
4:53 AM 25.0 °F 17.1 °F 21.0 °F 85% 29.97 in 2.5 mi SW 6.9 mph - 0.00 in Snow Light Snow
5:04 AM 24.8 °F 17.9 °F 21.2 °F 86% 29.94 in 3.0 mi SW 5.8 mph - 0.00 in Snow Light Snow
5:53 AM 26.1 °F 18.4 °F 21.9 °F 84% 30.00 in 4.0 mi SW 6.9 mph - 0.00 in Snow Light Snow
6:53 AM 26.6 °F 20.0 °F 21.2 °F 80% 29.97 in 8.0 mi SW 5.8 mph - N/A   Overcast
7:53 AM 25.0 °F 19.3 °F 21.0 °F 85% 30.02 in 7.0 mi WSW 4.6 mph - N/A   Mostly Cloudy
8:51 AM 26.6 °F 20.0 °F 21.2 °F 80% 30.01 in 7.0 mi WSW 5.8 mph - N/A   Overcast
8:53 AM 27.0 °F 20.5 °F 21.9 °F 81% 30.05 in 7.0 mi SW 5.8 mph - N/A   Overcast
9:53 AM 28.0 °F 21.7 °F 23.0 °F 81% 30.07 in 4.0 mi SW 5.8 mph - 0.00 in Snow Light Snow
10:42 AM 30.2 °F 21.9 °F 24.8 °F 80% 30.03 in 2.5 mi West 9.2 mph - 0.00 in Snow Light Snow
10:53 AM 30.9 °F 22.8 °F 26.1 °F 82% 30.07 in 2.5 mi West 9.2 mph - 0.00 in Snow Light Snow
11:53 AM 32.0 °F 23.0 °F 26.1 °F 79% 30.09 in 4.0 mi West 11.5 mph - 0.00 in Snow Light Snow
12:53 PM 30.9 °F 25.2 °F 26.1 °F 82% 30.09 in 4.0 mi SW 5.8 mph - 0.00 in Snow Light Snow
1:53 PM 33.1 °F 26.9 °F 26.1 °F 75% 30.09 in 9.0 mi West 6.9 mph - 0.00 in   Overcast
2:53 PM 33.1 °F 25.5 °F 26.1 °F 75% 30.10 in 10.0 mi West 9.2 mph - N/A   Overcast
3:53 PM 33.1 °F 26.1 °F 26.1 °F 75% 30.12 in 10.0 mi West 8.1 mph - 0.00 in   Overcast
4:24 PM 33.8 °F 27.0 °F 26.6 °F 75% 30.09 in 10.0 mi West 8.1 mph - N/A   Overcast
4:53 PM 33.1 °F 26.9 °F 26.1 °F 75% 30.12 in 10.0 mi West 6.9 mph - N/A   Mostly Cloudy
5:53 PM 33.1 °F 27.7 °F 23.0 °F 66% 30.13 in 10.0 mi West 5.8 mph - N/A   Scattered Clouds
6:53 PM 30.0 °F 26.5 °F 21.9 °F 72% 30.15 in 10.0 mi West 3.5 mph - N/A   Partly Cloudy
7:53 PM 25.0 °F - 21.0 °F 85% 30.17 in 10.0 mi Calm Calm - N/A   Clear
8:53 PM 25.0 °F 20.7 °F 21.9 °F 88% 30.18 in 9.0 mi WSW 3.5 mph - N/A   Clear
9:53 PM 25.0 °F - 21.0 °F 85% 30.19 in 6.0 mi Calm Calm - N/A   Clear
10:42 PM 21.2 °F - 19.4 °F 93% 30.14 in 1.8 mi Calm Calm - N/A   Clear
10:50 PM 19.4 °F - 17.6 °F 93% 30.15 in 0.2 mi Calm Calm - N/A Fog Light Freezing Fog
10:53 PM 21.0 °F - 19.0 °F 92% 30.19 in 0.2 mi Calm Calm - N/A Fog Light Freezing Fog
11:01 PM 19.4 °F - 17.6 °F 93% 30.15 in 1.2 mi Calm Calm - N/A   Clear
11:04 PM 19.4 °F - 17.6 °F 93% 30.15 in 4.0 mi Calm Calm - N/A   Clear
11:24 PM 17.6 °F - 17.6 °F 100% 30.14 in 2.0 mi Calm Calm - N/A   Clear
11:34 PM 17.6 °F - 15.8 °F 93% 30.14 in 5.0 mi Calm Calm - N/A   Clear
11:53 PM 17.1 °F - 16.0 °F 96% 30.19 in 1.5 mi Calm Calm - N/A   Clear